Location: Chełm
(51.1339°N, 23.4725°E)
Time: 05:19:57
(UTC+01:00)

ISS - Pass Details

Date: 27 January 2019
Orbit: 403 x 411 km, 51.6° (Epoch: 23 February)

Event Time Altitude Azimuth Distance (km) Brightness Sun altitude
Rises 18:21:00 0° 252° (WSW) 2,333 1.4 -20.8°
Reaches altitude 10° 18:23:04 10° 251° (WSW) 1,475 0.1 -21.1°
Enters shadow 18:25:53 60° 234° (SW) 474 -3.4 -21.5°
